BEL32T EBBR-ELLX

Flight info

Callsign BEL32T
Flight time 0h 39m
Altitude 15000
Route LNO
Aircraft A20N/M-SDE2E3FGHIRWXY/LB1

Departure

Time 2026-05-01 13:00
Airport Brussels Airport (EBBR)

Arrival

Time 2026-05-01 13:39
Airport Luxembourg-Findel International Airport (ELLX)
Time Latitude Longitude Altitude Speed Heading
2026-05-01 12:52 50.89857 4.47002 125 ft 3 kts 335°
2026-05-01 12:53 50.89820 4.47028 125 ft 3 kts 331°
2026-05-01 12:53 50.89804 4.47045 124 ft 3 kts 299°
2026-05-01 12:53 50.89801 4.47063 126 ft 1 kts 245°
2026-05-01 12:54 50.89807 4.47083 123 ft 3 kts 245°
2026-05-01 12:54 50.89810 4.47094 123 ft 0 kts 245°
2026-05-01 12:56 50.89809 4.47092 123 ft 1 kts 245°
2026-05-01 12:56 50.89804 4.47075 125 ft 1 kts 245°
2026-05-01 12:56 50.89782 4.46996 128 ft 15 kts 245°
2026-05-01 12:56 50.89721 4.46783 133 ft 24 kts 245°
2026-05-01 12:57 50.89650 4.46548 135 ft 24 kts 244°
2026-05-01 12:57 50.89600 4.46074 140 ft 21 kts 284°
2026-05-01 12:57 50.89658 4.45882 141 ft 18 kts 297°
2026-05-01 12:58 50.89715 4.45725 141 ft 15 kts 326°
2026-05-01 12:58 50.89803 4.45669 141 ft 8 kts 347°
2026-05-01 12:58 50.89811 4.45666 141 ft 3 kts 350°
2026-05-01 12:59 50.89990 4.45902 139 ft 49 kts 64°
2026-05-01 12:59 50.90226 4.46732 128 ft 114 kts 65°
2026-05-01 12:59 50.91134 4.49808 612 ft 170 kts 69°
2026-05-01 13:00 50.92187 4.53358 1922 ft 187 kts 68°
2026-05-01 13:00 50.92745 4.55295 2481 ft 198 kts 70°
2026-05-01 13:01 50.93866 4.59468 3518 ft 222 kts 70°
2026-05-01 13:01 50.94425 4.61909 3786 ft 249 kts 80°
2026-05-01 13:01 50.94568 4.63031 3942 ft 260 kts 82°
2026-05-01 13:07 50.65460 5.01215 15253 ft 404 kts 110°
2026-05-01 13:07 50.64888 5.05594 15259 ft 410 kts 100°
2026-05-01 13:07 50.64479 5.10045 15278 ft 411 kts 100°
2026-05-01 13:08 50.64066 5.14503 15264 ft 411 kts 100°
2026-05-01 13:08 50.63648 5.18957 15262 ft 411 kts 100°
2026-05-01 13:08 50.63227 5.23402 15267 ft 411 kts 101°
2026-05-01 13:08 50.62800 5.27853 15268 ft 411 kts 101°
2026-05-01 13:09 50.62371 5.32303 15269 ft 411 kts 101°
2026-05-01 13:09 50.61942 5.36739 15278 ft 411 kts 101°
2026-05-01 13:09 50.61552 5.40782 15270 ft 411 kts 100°
2026-05-01 13:10 50.61404 5.42184 15278 ft 410 kts 102°
2026-05-01 13:10 50.60934 5.46617 15276 ft 411 kts 101°
2026-05-01 13:10 50.60494 5.51055 15274 ft 411 kts 101°
2026-05-01 13:11 50.60070 5.55529 15274 ft 411 kts 100°
2026-05-01 13:11 50.59647 5.59958 15276 ft 411 kts 102°
2026-05-01 13:11 50.58851 5.64250 15271 ft 408 kts 114°
2026-05-01 13:11 50.57472 5.68123 15263 ft 406 kts 127°
2026-05-01 13:12 50.55574 5.71402 15269 ft 404 kts 139°
2026-05-01 13:12 50.53307 5.73893 15273 ft 404 kts 151°
2026-05-01 13:12 50.50691 5.75655 15269 ft 404 kts 159°
2026-05-01 13:12 50.48087 5.77171 15275 ft 405 kts 159°
2026-05-01 13:13 50.45447 5.78709 15265 ft 404 kts 159°
2026-05-01 13:13 50.42811 5.80246 15270 ft 404 kts 159°
2026-05-01 13:13 50.40177 5.81787 15262 ft 405 kts 159°
2026-05-01 13:13 50.37538 5.83332 15261 ft 404 kts 159°
2026-05-01 13:14 50.34904 5.84872 15267 ft 404 kts 159°
2026-05-01 13:14 50.32232 5.86432 15268 ft 405 kts 159°
2026-05-01 13:14 50.29626 5.87948 15278 ft 405 kts 159°
2026-05-01 13:14 50.26987 5.89484 15271 ft 404 kts 159°
2026-05-01 13:15 50.24293 5.90658 15168 ft 399 kts 171°
2026-05-01 13:15 50.21556 5.90810 14929 ft 389 kts 179°
2026-05-01 13:15 50.18873 5.90777 14687 ft 383 kts 179°
2026-05-01 13:15 50.16216 5.90728 14451 ft 380 kts 179°
2026-05-01 13:16 50.13599 5.90670 14048 ft 374 kts 179°
2026-05-01 13:16 50.11013 5.90612 13490 ft 371 kts 179°
2026-05-01 13:16 50.08444 5.90559 12969 ft 367 kts 179°
2026-05-01 13:17 50.00887 5.90433 11279 ft 350 kts 179°
2026-05-01 13:17 49.98489 5.90393 11016 ft 338 kts 179°
2026-05-01 13:18 49.93964 5.90322 10769 ft 313 kts 179°
2026-05-01 13:18 49.91837 5.90285 10577 ft 297 kts 179°
2026-05-01 13:18 49.89835 5.90252 10311 ft 281 kts 180°
2026-05-01 13:18 49.87900 5.90221 9754 ft 276 kts 180°
2026-05-01 13:19 49.85987 5.90194 9250 ft 276 kts 180°
2026-05-01 13:19 49.84084 5.90170 8940 ft 272 kts 180°
2026-05-01 13:19 49.80318 5.90123 8277 ft 269 kts 180°
2026-05-01 13:20 49.78451 5.90095 7899 ft 269 kts 180°
2026-05-01 13:20 49.76587 5.90064 7574 ft 267 kts 180°
2026-05-01 13:20 49.74744 5.90035 7225 ft 264 kts 180°
2026-05-01 13:21 49.71089 5.89977 6643 ft 258 kts 180°
2026-05-01 13:21 49.69316 5.89949 6385 ft 252 kts 180°
2026-05-01 13:21 49.67577 5.89921 6126 ft 247 kts 180°
2026-05-01 13:21 49.65874 5.89892 5874 ft 242 kts 179°
2026-05-01 13:22 49.64194 5.89862 5619 ft 240 kts 179°
2026-05-01 13:22 49.62527 5.89831 5356 ft 237 kts 180°
2026-05-01 13:22 49.60914 5.90031 5107 ft 231 kts 165°
2026-05-01 13:22 49.59434 5.90978 4891 ft 229 kts 147°
2026-05-01 13:23 49.58115 5.92307 4682 ft 223 kts 147°
2026-05-01 13:23 49.56820 5.93597 4464 ft 223 kts 147°
2026-05-01 13:23 49.55508 5.94896 4208 ft 223 kts 146°
2026-05-01 13:23 49.54453 5.96621 3962 ft 227 kts 112°
2026-05-01 13:24 49.54378 5.98994 3772 ft 227 kts 71°
2026-05-01 13:24 49.55119 6.01104 3675 ft 221 kts 62°
2026-05-01 13:24 49.55891 6.03083 3473 ft 210 kts 63°
2026-05-01 13:25 49.57297 6.06811 2967 ft 194 kts 64°
2026-05-01 13:25 49.57961 6.08589 2714 ft 189 kts 64°
2026-05-01 13:25 49.58599 6.10295 2461 ft 178 kts 65°
2026-05-01 13:25 49.59191 6.11880 2257 ft 165 kts 63°
2026-05-01 13:26 49.59739 6.13346 2043 ft 151 kts 63°
2026-05-01 13:26 49.60271 6.14734 1787 ft 147 kts 63°
2026-05-01 13:26 49.60775 6.16085 1568 ft 144 kts 65°
2026-05-01 13:26 49.61266 6.17420 1389 ft 142 kts 64°
2026-05-01 13:27 49.61759 6.18752 1232 ft 143 kts 65°
2026-05-01 13:27 49.62214 6.20039 1192 ft 125 kts 64°
2026-05-01 13:27 49.63176 6.22689 2315 ft 155 kts 64°
2026-05-01 13:28 49.64331 6.25724 3698 ft 174 kts 63°
2026-05-01 13:28 49.64974 6.27416 4094 ft 199 kts 63°
2026-05-01 13:29 49.66506 6.31546 4009 ft 229 kts 61°
2026-05-01 13:29 49.69291 6.33750 4014 ft 244 kts 356°
2026-05-01 13:30 49.71950 6.25831 4001 ft 237 kts 258°
2026-05-01 13:31 49.71458 6.20736 4004 ft 240 kts 258°
2026-05-01 13:31 49.69753 6.14535 4003 ft 234 kts 238°
2026-05-01 13:32 49.68204 6.10138 4015 ft 235 kts 238°
2026-05-01 13:33 49.65834 6.03515 4015 ft 236 kts 237°
2026-05-01 13:33 49.64257 5.99114 4009 ft 235 kts 238°
2026-05-01 13:34 49.62465 5.94963 3927 ft 228 kts 211°
2026-05-01 13:34 49.59683 5.92730 3628 ft 225 kts 191°
2026-05-01 13:35 49.56881 5.94030 3496 ft 216 kts 125°
2026-05-01 13:35 49.56323 5.96091 3378 ft 208 kts 98°
2026-05-01 13:35 49.56169 6.00443 3112 ft 197 kts 92°
2026-05-01 13:36 49.56143 6.02480 3067 ft 187 kts 92°
2026-05-01 13:36 49.56398 6.04375 3017 ft 178 kts 69°
2026-05-01 13:36 49.57561 6.07531 2821 ft 165 kts 64°
2026-05-01 13:37 49.58128 6.09042 2614 ft 159 kts 63°
2026-05-01 13:37 49.58667 6.10482 2417 ft 153 kts 62°
2026-05-01 13:37 49.59188 6.11875 2230 ft 149 kts 64°
2026-05-01 13:37 49.59698 6.13248 2066 ft 146 kts 63°
2026-05-01 13:38 49.60713 6.15988 1620 ft 146 kts 64°
2026-05-01 13:38 49.61214 6.17347 1416 ft 144 kts 66°
2026-05-01 13:38 49.61723 6.18712 1241 ft 147 kts 62°
2026-05-01 13:39 49.62216 6.20018 1188 ft 127 kts 59°
2026-05-01 13:39 49.62565 6.20946 1196 ft 57 kts 59°
2026-05-01 13:39 49.62772 6.21213 1200 ft 30 kts 21°
2026-05-01 13:39 49.62885 6.21307 1200 ft 11 kts 30°
2026-05-01 13:40 49.62939 6.21354 1203 ft 6 kts 29°
2026-05-01 13:40 49.62964 6.21375 1204 ft 2 kts 30°
2026-05-01 13:40 49.62984 6.21394 1205 ft 9 kts 31°
2026-05-01 13:40 49.63044 6.21519 1205 ft 18 kts 59°
2026-05-01 13:41 49.63090 6.21688 1208 ft 17 kts 68°
2026-05-01 13:41 49.63134 6.21772 1209 ft 6 kts
2026-05-01 13:41 49.63162 6.21755 1210 ft 2 kts 330°
2026-05-01 13:41 49.63184 6.21736 1211 ft 5 kts 329°
2026-05-01 13:42 49.63223 6.21700 1214 ft 8 kts 330°
2026-05-01 13:42 49.63260 6.21662 1217 ft 5 kts 320°
2026-05-01 13:42 49.63277 6.21614 1218 ft 6 kts 272°
2026-05-01 13:42 49.63260 6.21549 1218 ft 6 kts 246°
2026-05-01 13:43 49.63267 6.21528 1219 ft 0 kts 339°
2026-05-01 13:43 49.63283 6.21522 1219 ft 7 kts 348°
2026-05-01 13:43 49.63318 6.21496 1222 ft 0 kts 329°